Погода в Кукарках

Россия / Пензенская область     52°54′31″N   43°18′56″E
темп.,
°C
ветер,
м/с
пор.,
м/с
влажн.,
%
обл.,
%
осадки,
мм/ч
давл.,
гПа
погр.,
м
10 мая, пн
пн1000:00+6сз5897100 2.2 1014410
03:00+6ссз4896100 2.8 1014381
06:00+6ссз5997100 0.5 1015355
09:00+8с6997100 3.5 1016345
12:00+10с81394100 1.7 1015390
15:00+13ссв81690100 1.9 1016667
18:00+13ссв91891100 1.1 1016573
21:00+13ссв101891100 2.1 1016420
11 мая, вт
вт1100:00+13св91692100 0.1 1016383
03:00+12св91891100 0.1 1017438
06:00+14в61287100 0.0 1019680
09:00+10юв4991100 0.9 1022616
12:00+13вюв577186 0.8 10241309
15:00+16юв57515 0.8 10251684
18:00+14юв47625 0.0 1026379
21:00+9з22805 0.0 102711
12 мая, ср
ср1200:00+8с3584100 0.0 102773
03:00+10ссв4885100 0.1 1025267
06:00+11св61493100 1.3 1022606
09:00+13в81692100 3.0 1021780
12:00+14вюв91587100 0.5 10201130
15:00+10юз3592100 0.8 1022182
18:00+13юв138899 0.0 1022226
21:00+12всв2294100 0.1 102321
13 мая, чт
чт1300:00+12всв3596100 0.1 1022110
03:00+13в4995100 0.3 1021231
06:00+13в51286100 0.3 1020333
09:00+16вюв7127657 0.4 1019667
12:00+16юв61085100 0.4 1019767
15:00+18ююв477790 0.4 1018848
18:00+19ююв368112 2.2 1018272
21:00+15ю33920 2.8 101840
14 мая, пт
пт1400:00+13юв1193100 0.7 101911
03:00+13в1193100 0.7 101910
06:00+15в2289100 0.0 101953
09:00+19вюв34758 0.0 1019379
12:00+23юв4557100 0.0 10191093
15:00+25юв5755100 0.0 10181460
18:00+22юв49684 0.0 1017325
21:00+18юв513835 0.0 1016233